Regional Weather Roundup
Issued by NWS

Home | Current Version | Previous Version | Text Only | Print | Product List | Glossary Off
Versions: 1 2 3 4 5 6 7 8 9 10 11 12 13 14 15 16 17 18 19 20 21 22 23 24 25 26 27 28 29 30 31 32 33 34 35 36 37 38 39 40 41 42 43 44 45 46 47 48 49 50

000
ASUS45 KABQ 282201
RWRNM
NEW MEXICO REGIONAL WEATHER ROUNDUP
NATIONAL WEATHER SERVICE ALBUQUERQUE NM
400 PM MDT WED SEP 28 2016

NOTE: "FAIR" MEANS FEW OR NO CLOUDS BELOW 12,000 FEET AGL WITH NO
       SIGNIFICANT WEATHER OR OBSTRUCTIONS TO VISION.

      THIS PRODUCT IS RELEASED AS TWO VERSIONS.  ONE VERSION NEAR
      THE TOP OF THE HOUR CONTAINING PRELIMINARY DATA FROM ALBUQUERQUE
      AND OTHER STATIONS.  A FINAL VERSION WITH ADDITIONAL DATA IS
      ISSUED ABOUT 10 MINUTES AFTER THE HOUR.

NMZ501-503-504-510>518-282300-
NORTHWEST PLATEAU/NORTHCENTRAL MOUNTAINS

CITY           SKY/WX    TMP DP  RH WIND       PRES   REMARKS
FARMINGTON     FAIR      79  33  19 N3        30.23S
LOS ALAMOS     FAIR      75  26  16 SW7       30.37S
SANTA FE       FAIR      81  27  14 SE18G24   30.29S
TAOS           FAIR      79  23  12 SE14G20     N/A

$$
NMZ402-403-502-505>509-282300-
WESTCENTRAL MOUNTAINS/SOUTHWEST MOUNTAINS

CITY           SKY/WX    TMP DP  RH WIND       PRES   REMARKS
GALLUP         FAIR      73  42  32 W15G21    30.31S
SILVER CITY    FAIR      77  50  38 S13G23    30.26R

$$
NMZ407-409-411-412-282300-
SOUTHERN DESERTS

CITY           SKY/WX    TMP DP  RH WIND       PRES   REMARKS
DEMING         FAIR      79  52  38 E9        30.20R
LAS CRUCES     FAIR      79  49  35 E5        30.21S
HOLLOMAN AFB   PTSUNNY   81  51  35 S9        30.16F
ALAMOGORDO     FAIR      81  50  34 S6        30.19S
T OR C         FAIR      81  47  30 SE9       30.20F

$$
NMZ519>523-282300-
CENTRAL VALLEYS/CENTRAL HIGHLANDS

CITY           SKY/WX    TMP DP  RH WIND       PRES   REMARKS
ALBUQUERQUE    PTSUNNY   80  43  26 SW6       30.24F
DOUBLE EAGLE   PTSUNNY   81  43  26 VRB7      30.28S
MORIARTY ARPT  FAIR      81  23  11 E5        30.31F
CLINES CORNERS FAIR      72  28  19 E15G22    30.38S
BELEN          FAIR      81  40  23 S9        30.23S
SOCORRO        FAIR      83  41  22 S8        30.21F

$$
NMZ524>526-539-540-282300-
SOUTHCENTRAL MOUNTAINS

CITY           SKY/WX    TMP DP  RH WIND       PRES   REMARKS
RUIDOSO        FAIR      72  39  30 E9G17     30.37S

$$
NMZ527>531-282300-
NORTHEAST HIGHLANDS/NORTHEAST PLAINS

CITY           SKY/WX    TMP DP  RH WIND       PRES   REMARKS
LAS VEGAS      FAIR      76  25  15 VRB5      30.37S
RATON          FAIR      78  27  15 SE13G20   30.35R
CLAYTON        FAIR      82  33  17 E10       30.28S

$$
NMZ532>537-282300-
EASTCENTRAL PLAINS

CITY           SKY/WX    TMP DP  RH WIND       PRES   REMARKS
TUCUMCARI      FAIR      88  29  12 VRB3      30.18F
CANNON AFB     NOT AVBL
CLOVIS AIRPORT FAIR      82  43  24 E6        30.22S

$$
NMZ028-029-538-282300-
SOUTHEAST PLAINS

CITY           SKY/WX    TMP DP  RH WIND       PRES   REMARKS
ROSWELL        FAIR      86  42  21 VRB6      30.17S
ARTESIA        FAIR      81  52  36 VRB7      30.17F
CARLSBAD       FAIR      80  55  42 CALM      30.16S
HOBBS          MOSUNNY   81  46  30 E8        30.19S


$$




USA.gov is the U.S. government's official web portal to all federal, state and local government web resources and services.